Weather reports worldwide

Advertisment
Lulea/Kallax, Sweden (2186): temperature & dewpoint: 20.09.2018 05:00:00 - 26.09.2018 05:00:00 (CEST)Lulea/Kallax, Sweden (2186): wind speed & gusts: 20.09.2018 05:00:00 - 26.09.2018 05:00:00 (CEST)Lulea/Kallax, Sweden (2186): wind direction: 20.09.2018 05:00:00 - 26.09.2018 05:00:00 (CEST)Lulea/Kallax, Sweden (2186): reduced air pressure: 20.09.2018 05:00:00 - 26.09.2018 05:00:00 (CEST)Lulea/Kallax, Sweden (2186): visibility: 20.09.2018 05:00:00 - 26.09.2018 05:00:00 (CEST)Lulea/Kallax, Sweden (2186): precipitation: 20.09.2018 05:00:00 - 26.09.2018 05:00:00 (CEST)
Date & Time tt [°C] td [°C] ff [km/h] ff [kn] fx [km/h] fx [kn] dd ppp [hPa] vv [km] rr [mm]
26.09.2018 05:00:00 7,3 4,4 11 6 22 12 SSW 996,1 10 0,0
26.09.2018 04:00:00 7,0 4,0 13 7 22 12 SSW 998,1 10 0,0
26.09.2018 03:00:00 6,9 3,3 9 5 18 10 SSW 999,7 10 0,0
26.09.2018 02:00:00 7,0 3,1 9 5 25 14 SW 1001,0 10 0,0
26.09.2018 01:00:00 7,4 2,5 8 4 22 12 SW 1002,3 10 0,0
26.09.2018 00:00:00 7,6 1,9 9 5 22 12 WSW 1003,4 10 0,0
25.09.2018 23:00:00 7,8 1,6 8 4 22 12 SSW 1004,5 10 0,0
25.09.2018 22:00:00 7,9 1,1 9 5 18 10 W 1004,7 10 0,0
25.09.2018 21:00:00 8,0 0,9 11 6 32 18 W 1005,0 10 0,0
25.09.2018 20:00:00 9,0 1,0 22 12 32 18 W 1005,5 45 0,0
25.09.2018 19:00:00 9,2 2,7 9 5 29 16 W 1005,7 10 0,0
25.09.2018 18:00:00 9,8 3,1 13 7 29 16 WSW 1005,7 10 0,0
25.09.2018 17:00:00 9,3 2,8 13 7 25 14 SW 1006,0 10 0,0
25.09.2018 16:00:00 9,0 2,6 21 11 36 19 WSW 1006,8 10 0,0
25.09.2018 15:00:00 8,4 2,6 16 9 32 18 SW 1007,2 10 0,0
25.09.2018 14:00:00 8,2 2,2 16 9 32 18 SW 1008,0 10 0,0
25.09.2018 13:00:00 8,8 1,5 16 9 29 16 SW 1008,7 10 0,0
25.09.2018 12:00:00 9,0 1,2 11 6 22 12 SW 1009,3 82 0,0
25.09.2018 11:00:00 7,3 0,5 15 8 25 14 WSW 1010,2 10 0,0
25.09.2018 10:00:00 6,0 -0,1 11 6 25 14 WSW 1010,5 10 0,0
25.09.2018 09:00:00 4,2 -0,8 13 7 22 12 WSW 1010,9 10 0,0
25.09.2018 08:00:00 2,3 -1,9 14 8 25 14 W 1011,2 82 0,0
25.09.2018 07:00:00 1,3 -2,5 13 7 22 12 W 1011,4 10 0,0
25.09.2018 06:00:00 0,6 -3,0 9 5 14 8 W 1011,3 10 0,0
25.09.2018 05:00:00 0,2 -3,4 9 5 14 8 W 1011,3 10 0,0
25.09.2018 04:00:00 0,9 -3,0 13 7 22 12 WNW 1011,4 10 0,0
25.09.2018 03:00:00 1,8 -3,1 18 10 25 14 W 1011,3 10 0,0
25.09.2018 02:00:00 1,8 -3,3 15 8 22 12 WNW 1010,8 10 0,0
25.09.2018 01:00:00 2,4 -3,3 13 7 29 16 WNW 1010,5 10 0,0
25.09.2018 00:00:00 3,1 -3,0 15 8 29 16 WNW 1009,7 10 0,0
24.09.2018 23:00:00 3,7 -2,9 24 13 36 19 NW 1008,8 10 0,0
24.09.2018 22:00:00 4,5 -3,3 28 15 40 21 NW 1008,1 10 0,0
24.09.2018 21:00:00 5,4 -2,9 29 16 47 25 NW 1007,3 10 0,0
24.09.2018 20:00:00 6,2 -2,7 26 14 40 21 WNW 1006,1 10 0,0
24.09.2018 19:00:00 6,8 -2,4 26 14 40 21 WNW 1005,1 10 0,0
24.09.2018 18:00:00 8,1 -1,7 21 11 32 18 WNW 1004,0 10 0,0
24.09.2018 17:00:00 8,6 -1,5 21 11 36 19 WNW 1003,1 10 0,0
24.09.2018 16:00:00 9,4 -1,3 29 16 47 25 NW 1002,0 10 0,0
24.09.2018 15:00:00 9,9 -2,1 35 19 50 27 NW 1000,9 10 0,0
24.09.2018 14:00:00 9,4 -0,5 24 13 43 23 WNW 1000,0 10 0,0
24.09.2018 13:00:00 8,9 -0,4 29 16 54 29 NW 999,2 10 0,0
24.09.2018 12:00:00 10,5 -0,6 37 20 54 29 NW 997,8 10 0,0
24.09.2018 11:00:00 8,9 -0,7 37 20 50 27 NW 996,6 10 0,0
24.09.2018 10:00:00 8,1 -0,4 37 20 50 27 WNW 995,5 10 0,0
24.09.2018 09:00:00 7,1 -0,6 34 18 47 25 WNW 994,6 10 0,0
24.09.2018 08:00:00 6,8 -0,4 31 17 47 25 WNW 993,8 10 0,0
24.09.2018 07:00:00 6,5 -0,7 35 19 47 25 WNW 993,7 10 0,0
24.09.2018 06:00:00 6,7 -0,3 29 16 43 23 WNW 992,0 10 0,0
24.09.2018 05:00:00 6,7 -0,1 26 14 43 23 WNW 991,4 10 0,0
24.09.2018 04:00:00 6,5 0,2 24 13 40 21 WNW 990,8 10 0,0
24.09.2018 03:00:00 6,6 0,3 24 13 36 19 WNW 989,8 10 0,0
24.09.2018 02:00:00 6,6 0,5 21 11 32 18 WNW 989,1 10 0,0
24.09.2018 01:00:00 6,6 0,5 24 13 32 18 W 988,3 10 0,0
24.09.2018 00:00:00 6,8 0,7 21 11 29 16 W 987,6 10 0,0
23.09.2018 23:00:00 6,8 0,7 16 9 29 16 W 987,0 10 0,0
23.09.2018 22:00:00 7,2 0,6 21 11 36 19 W 986,6 10 0,0
23.09.2018 21:00:00 7,8 0,3 18 10 32 18 W 986,1 10 0,0
23.09.2018 20:00:00 8,0 0,2 22 12 40 21 W 986,0 10 0,0
23.09.2018 19:00:00 8,8 0,5 18 10 32 18 W 986,0 10 0,0
23.09.2018 18:00:00 9,5 0,7 21 11 43 23 W 985,8 10 0,0
23.09.2018 17:00:00 11,1 0,5 22 12 43 23 W 985,5 10 0,0
23.09.2018 16:00:00 11,1 1,3 22 12 32 18 W 985,2 10 0,0
23.09.2018 15:00:00 11,8 1,7 15 8 36 19 W 985,0 10 0,0
23.09.2018 14:00:00 11,4 1,6 11 6 36 19 WSW 984,8 10 0,0
23.09.2018 13:00:00 10,9 2,0 15 8 29 16 WSW 984,4 10 0,0
23.09.2018 12:00:00 10,4 2,7 15 8 29 16 WSW 984,0 10 0,0
23.09.2018 11:00:00 10,0 2,6 16 9 32 18 WSW 983,6 10 0,0
23.09.2018 10:00:00 9,7 3,2 15 8 32 18 WSW 983,2 10 0,0
23.09.2018 09:00:00 9,2 3,4 21 11 32 18 WSW 982,6 10 0,0
23.09.2018 08:00:00 9,0 3,6 21 11 29 16 SW 982,4 10 0,0
23.09.2018 07:00:00 8,4 4,0 13 7 25 14 SW 982,3 10 0,0
23.09.2018 06:00:00 8,5 4,3 16 9 25 14 SW 982,4 10 0,0
23.09.2018 05:00:00 8,8 4,6 15 8 25 14 SW 982,0 10 0,0
23.09.2018 04:00:00 9,2 5,0 16 9 25 14 SSW 981,6 10 0,0
23.09.2018 03:00:00 9,8 5,6 16 9 32 18 SSW 981,5 10 0,0
23.09.2018 02:00:00 10,2 5,6 18 10 32 18 SW 981,0 10 0,0
23.09.2018 01:00:00 10,6 5,4 22 12 32 18 SW 980,9 10 0,0
23.09.2018 00:00:00 10,9 5,4 16 9 40 21 SW 980,6 10 0,0
22.09.2018 23:00:00 11,5 5,4 22 12 50 27 SW 980,0 10 0,0
22.09.2018 22:00:00 12,1 5,3 28 15 50 27 SW 979,5 10 0,0
22.09.2018 21:00:00 11,7 6,0 24 13 47 25 SW 979,4 10 0,0
22.09.2018 20:00:00 11,6 6,9 24 13 43 23 SSW 978,8 10 0,0
22.09.2018 19:00:00 11,2 7,3 28 15 43 23 SSW 978,6 10 0,0
22.09.2018 18:00:00 11,2 7,1 21 11 40 21 SSW 978,5 10 0,0
22.09.2018 17:00:00 11,7 9,3 28 15 50 27 S 977,6 10 0,0
22.09.2018 16:00:00 11,3 9,2 37 20 61 33 S 977,4 10 0,0
22.09.2018 15:00:00 11,6 9,3 41 22 65 35 S 977,5 10 0,0
22.09.2018 14:00:00 11,6 9,2 37 20 68 37 S 978,1 10 0,0
22.09.2018 13:00:00 11,8 9,2 35 19 54 29 S 978,8 10 0,0
22.09.2018 12:00:00 11,1 9,5 31 17 54 29 S 979,8 9 0,8
22.09.2018 11:00:00 12,5 9,7 22 12 54 29 S 980,4 10 0,0
22.09.2018 10:00:00 12,3 9,5 29 16 43 23 S 980,8 10 0,0
22.09.2018 09:00:00 12,1 9,8 26 14 43 23 S 981,2 10 0,0
22.09.2018 08:00:00 12,2 10,9 26 14 40 21 S 981,3 10 0,0
22.09.2018 07:00:00 12,1 11,3 24 13 40 21 S 981,9 10 0,0
22.09.2018 06:00:00 12,5 11,7 24 13 36 19 S 982,4 6 3,0
22.09.2018 05:00:00 13,7 12,8 24 13 40 21 S 982,3 10 0,0
22.09.2018 04:00:00 13,6 12,7 29 16 43 23 S 983,7 10 0,0
22.09.2018 03:00:00 13,5 12,7 28 15 40 21 S 984,6 10 0,6
22.09.2018 02:00:00 14,1 13,0 22 12 36 19 S 985,8 10 0,0
22.09.2018 01:00:00 13,8 12,9 22 12 32 18 S 986,9 10 0,0
22.09.2018 00:00:00 13,3 12,7 26 14 36 19 SSE 987,2 10 0,0
21.09.2018 23:00:00 13,0 12,4 28 15 40 21 SE 988,5 10 0,0
21.09.2018 22:00:00 12,5 11,9 28 15 40 21 SSE 990,0 9 0,0
21.09.2018 21:00:00 11,8 11,2 29 16 40 21 SSE 991,2 10 0,2
21.09.2018 20:00:00 11,0 10,4 18 10 29 16 S 992,8 10 2,0
21.09.2018 19:00:00 11,1 10,2 24 13 43 23 S 994,0 10 1,0
21.09.2018 18:00:00 11,9 8,7 26 14 40 21 S 995,1 10 0,0
21.09.2018 17:00:00 12,1 9,1 22 12 40 21 S 995,6 10 0,0
21.09.2018 16:00:00 12,1 7,6 21 11 32 18 S 996,2 10 0,0
21.09.2018 15:00:00 12,6 6,8 21 11 36 19 S 996,9 10 0,0
21.09.2018 14:00:00 12,4 6,0 18 10 36 19 SSW 996,8 10 0,0
21.09.2018 13:00:00 13,8 4,9 16 9 29 16 SSW 996,6 10 0,0
21.09.2018 12:00:00 13,0 4,2 16 9 29 16 SSW 996,5 10 0,0
21.09.2018 11:00:00 11,9 3,9 15 8 25 14 SW 996,4 10 0,0
21.09.2018 10:00:00 11,1 4,3 18 10 29 16 SSW 996,2 10 0,0
21.09.2018 09:00:00 10,6 3,4 16 9 29 16 SSW 995,6 10 0,0
21.09.2018 08:00:00 9,7 4,1 13 7 22 12 SSW 995,4 10 0,0
21.09.2018 07:00:00 9,7 4,5 15 8 22 12 SSW 995,5 10 0,0
21.09.2018 06:00:00 9,0 3,8 11 6 25 14 SW 995,0 10 0,0
21.09.2018 05:00:00 9,7 3,9 18 10 32 18 SW 995,0 10 0,0
21.09.2018 04:00:00 10,2 3,9 22 12 40 21 SW 994,6 10 0,0
21.09.2018 03:00:00 11,4 3,7 21 11 40 21 WSW 993,9 10 0,0
21.09.2018 02:00:00 11,5 3,8 22 12 40 21 WSW 992,8 10 0,0
21.09.2018 01:00:00 11,8 4,5 22 12 36 19 SW 992,1 10 0,0
21.09.2018 00:00:00 11,9 4,8 21 11 36 19 SW 991,4 10 0,0
20.09.2018 23:00:00 11,9 5,1 16 9 29 16 SW 991,3 10 0,0
20.09.2018 22:00:00 12,6 5,3 16 9 36 19 SW 991,5 10 0,0
20.09.2018 21:00:00 12,3 6,6 13 7 25 14 SSW 991,1 10 0,0
20.09.2018 20:00:00 12,2 6,0 15 8 29 16 SW 990,7 10 0,0
20.09.2018 19:00:00 13,3 4,7 15 8 50 27 SW 990,7 10 0,0
20.09.2018 18:00:00 13,1 6,4 15 8 32 18 W 990,4 10 0,7
20.09.2018 17:00:00 15,7 5,3 13 7 36 19 SW 989,3 10 0,0
20.09.2018 16:00:00 17,6 5,8 21 11 36 19 SW 988,7 10 0,0
20.09.2018 15:00:00 17,2 9,1 18 10 36 19 S 988,2 10 0,0
20.09.2018 14:00:00 14,7 12,4 22 12 36 19 S 988,1 10 0,0
20.09.2018 13:00:00 14,8 12,5 22 12 43 23 S 988,2 10 0,0
20.09.2018 12:00:00 14,4 12,8 21 11 36 19 S 988,4 10 0,0
20.09.2018 11:00:00 14,0 12,7 26 14 47 25 S 988,9 10 0,0
20.09.2018 10:00:00 14,0 12,7 31 17 50 27 S 989,4 10 0,0
20.09.2018 09:00:00 14,0 12,9 31 17 47 25 S 989,8 10 0,0
20.09.2018 08:00:00 13,0 12,0 26 14 - - S - 10 -
20.09.2018 07:00:00 13,1 12,3 24 13 43 23 S 991,9 10 0,0
20.09.2018 06:00:00 12,7 12,4 24 13 43 23 SE 993,1 10 0,0
20.09.2018 05:00:00 12,2 11,9 18 10 25 14 SE 994,6 10 0,0

tt = temperature
td = dewpoint
ff = wind speed
fx = gusts
dd = wind direction
ppp = reduced air pressure
vv = visibility
rr = precipitation

Next stations